Regional Weather Roundup
Issued by NWS

Home | Current Version | Previous Version | Text Only | Print | Product List | Glossary On
Versions: 1 2 3 4 5 6 7 8 9 10 11 12 13 14 15 16 17 18 19 20 21 22 23 24 25 26 27 28 29 30 31 32 33 34 35 36 37 38 39 40 41 42 43 44 45 46 47 48 49 50
000
ASUS45 KCYS 240410
RWRWY

WYOMING REGIONAL WEATHER ROUNDUP
NATIONAL WEATHER SERVICE CHEYENNE WY
1000 PM MDT WED JUL 23 2014

NOTE:  "FAIR" INDICATES FEW OR NO CLOUDS BELOW 12,000 FEET
WITH NO SIGNIFICANT WEATHER AND/OR OBSTRUCTIONS TO VISIBILITY.

WYZ001-240500-
YELLOWSTONE NATIONAL PARK

CITY           SKY/WX    TMP DP  RH WIND       PRES   REMARKS
LK YELLOWSTONE   N/A     56  42  59 NW3       30.31R
W YELLOWSTONE  NOT AVBL

$$
WYZ002>013-054>058-071-098>099-240500-
NORTHERN WYOMING

CITY           SKY/WX    TMP DP  RH WIND       PRES   REMARKS
JACKSON        CLEAR     63  41  45 N10       30.16S
CODY           NOT AVBL
GREYBULL       PTCLDY    85  41  21 SE3       29.89S
WORLAND        CLEAR     84  42  22 W5        29.92R
SHERIDAN       MOCLDY    83  55  38 SW8       29.95R
BUFFALO        MOCLDY    83  57  41 SE3       30.04F
GILLETTE       PTCLDY    82  61  48 SE23G32   29.99F
HULETT         FAIR      82  59  44 MISG      30.03
NEWCASTLE      FAIR      81  59  47 SE17      30.06

$$
WYZ014>020-022>026-101>103-240500-
CENTRAL WYOMING

CITY           SKY/WX    TMP DP  RH WIND       PRES   REMARKS
BIG PINEY      MOCLDY    76  37  24 S14       30.25R
PINEDALE       MOCLDY    77  34  20 S20G28    30.26S
DUBOIS         FAIR      70  27  19 MISG      30.23S
LANDER         MOCLDY    84  35  17 SW28G39   30.09R
RIVERTON       PTCLDY    82  34  17 SW12      30.08R
CASPER         CLOUDY    83  37  19 S7        30.09R
DOUGLAS        MOCLDY    80  38  22 S8        30.09F

$$
WYZ021-027>030-104>119-240500-
SOUTHERN WYOMING

CITY           SKY/WX    TMP DP  RH WIND       PRES   REMARKS
EVANSTON       LGT RAIN  68  52  56 N5        30.26R
KEMMERER       PTCLDY   N/A N/A N/A S7        30.28S
ROCK SPRINGS   CLOUDY    78  30  17 SE9       30.23F
DIXON          FAIR      82  37  20 E12G17    30.27S
RAWLINS        MOCLDY    74  27  17 S3        30.25R
SARATOGA       FAIR      77  41  27 SE18G25   30.31R
LARAMIE        MOCLDY    71  40  32 SE8       30.34S
CHEYENNE       CLOUDY    74  47  38 W12G20    30.28S
TORRINGTON     MOCLDY    81  66  60 SE16      30.08S
PINE BLUFFS    FAIR      72  48  43 S8        30.21S

$$


USA.gov is the U.S. government's official web portal to all federal, state and local government web resources and services.